Location: Little Chesterford
(52.0500°N, 0.1833°E)
Time: 11:45:06
(UTC+00:00)

Cosmos 2237 Rocket - Pass Details

Date: 26 September 2023
Orbit: 836 x 848 km, 71.0° (Epoch: 09 December)

Event Time Altitude Azimuth Distance (km) Brightness Sun altitude
Rises 19:15:32 0° 162° (SSE) 3,395 5.0 -14.0°
Enters shadow 19:15:44 - 162° (SSE) 3,327 5.0 -14.0°
Exits shadow 19:24:23 18° 76° (ENE) 1,976 3.6 -15.3°
Drops below altitude 10° 19:26:41 10° 54° (NE) 2,482 4.3 -15.6°
Sets 19:29:42 0° 39° (NE) 3,423 5.2 -16.1°
